Year,Month,Day,Hour,Minute,Value (Times are PST for insolation in W/m^2)
2015,10,03,00,00,0.00
2015,10,03,00,01,0.00
2015,10,03,00,02,0.00
2015,10,03,00,03,0.00
2015,10,03,00,04,0.00
2015,10,03,00,05,0.00
2015,10,03,00,06,0.00
2015,10,03,00,07,0.00
2015,10,03,00,08,0.00
2015,10,03,00,09,0.00
2015,10,03,00,10,0.00
2015,10,03,00,11,0.00
2015,10,03,00,12,0.00
2015,10,03,00,13,0.00
2015,10,03,00,14,0.00
2015,10,03,00,15,0.00
2015,10,03,00,16,0.00
2015,10,03,00,17,0.00
2015,10,03,00,18,0.00
2015,10,03,00,19,0.00
2015,10,03,00,20,0.00
2015,10,03,00,21,0.00
2015,10,03,00,22,0.00
2015,10,03,00,23,0.00
2015,10,03,00,24,0.00
2015,10,03,00,25,0.00
2015,10,03,00,26,0.00
2015,10,03,00,27,0.00
2015,10,03,00,28,0.00
2015,10,03,00,29,0.00
2015,10,03,00,30,0.00
2015,10,03,00,31,0.00
2015,10,03,00,32,0.00
2015,10,03,00,33,0.00
2015,10,03,00,34,0.00
2015,10,03,00,35,0.00
2015,10,03,00,36,0.00
2015,10,03,00,37,0.00
2015,10,03,00,38,0.00
2015,10,03,00,39,0.00
2015,10,03,00,40,0.00
2015,10,03,00,41,0.00
2015,10,03,00,42,0.00
2015,10,03,00,43,0.00
2015,10,03,00,44,0.00
2015,10,03,00,45,0.00
2015,10,03,00,46,0.00
2015,10,03,00,47,0.00
2015,10,03,00,48,0.00
2015,10,03,00,49,0.00
2015,10,03,00,50,0.00
2015,10,03,00,51,0.00
2015,10,03,00,52,0.00
2015,10,03,00,53,0.00
2015,10,03,00,54,0.00
2015,10,03,00,55,0.00
2015,10,03,00,56,0.00
2015,10,03,00,57,0.00
2015,10,03,00,58,0.00
2015,10,03,00,59,0.00
2015,10,03,01,00,0.00
2015,10,03,01,01,0.00
2015,10,03,01,02,0.00
2015,10,03,01,03,0.00
2015,10,03,01,04,0.00
2015,10,03,01,05,0.00
2015,10,03,01,06,0.00
2015,10,03,01,07,0.00
2015,10,03,01,08,0.00
2015,10,03,01,09,0.00
2015,10,03,01,10,0.00
2015,10,03,01,11,0.00
2015,10,03,01,12,0.00
2015,10,03,01,13,0.00
2015,10,03,01,14,0.00
2015,10,03,01,15,0.00
2015,10,03,01,16,0.00
2015,10,03,01,17,0.00
2015,10,03,01,18,0.00
2015,10,03,01,19,0.00
2015,10,03,01,20,0.00
2015,10,03,01,21,0.00
2015,10,03,01,22,0.00
2015,10,03,01,23,0.00
2015,10,03,01,24,0.00
2015,10,03,01,25,0.00
2015,10,03,01,26,0.00
2015,10,03,01,27,0.00
2015,10,03,01,28,0.00
2015,10,03,01,29,0.00
2015,10,03,01,30,0.00
2015,10,03,01,31,0.00
2015,10,03,01,32,0.00
2015,10,03,01,33,0.00
2015,10,03,01,34,0.00
2015,10,03,01,35,0.00
2015,10,03,01,36,0.00
2015,10,03,01,37,0.00
2015,10,03,01,38,0.00
2015,10,03,01,39,0.00
2015,10,03,01,40,0.00
2015,10,03,01,41,0.00
2015,10,03,01,42,0.00
2015,10,03,01,43,0.00
2015,10,03,01,44,0.00
2015,10,03,01,45,0.00
2015,10,03,01,46,0.00
2015,10,03,01,47,0.00
2015,10,03,01,48,0.00
2015,10,03,01,49,0.00
2015,10,03,01,50,0.00
2015,10,03,01,51,0.00
2015,10,03,01,52,0.00
2015,10,03,01,53,0.00
2015,10,03,01,54,0.00
2015,10,03,01,55,0.00
2015,10,03,01,56,0.00
2015,10,03,01,57,0.00
2015,10,03,01,58,0.00
2015,10,03,01,59,0.00
2015,10,03,02,00,0.00
2015,10,03,02,01,0.00
2015,10,03,02,02,0.00
2015,10,03,02,03,0.00
2015,10,03,02,04,0.00
2015,10,03,02,05,0.00
2015,10,03,02,06,0.00
2015,10,03,02,07,0.00
2015,10,03,02,08,0.00
2015,10,03,02,09,0.00
2015,10,03,02,10,0.00
2015,10,03,02,11,0.00
2015,10,03,02,12,0.00
2015,10,03,02,13,0.00
2015,10,03,02,14,0.00
2015,10,03,02,15,0.00
2015,10,03,02,16,0.00
2015,10,03,02,17,0.00
2015,10,03,02,18,0.00
2015,10,03,02,19,0.00
2015,10,03,02,20,0.00
2015,10,03,02,21,0.00
2015,10,03,02,22,0.00
2015,10,03,02,23,0.00
2015,10,03,02,24,0.00
2015,10,03,02,25,0.00
2015,10,03,02,26,0.00
2015,10,03,02,27,0.00
2015,10,03,02,28,0.00
2015,10,03,02,29,0.00
2015,10,03,02,30,0.00
2015,10,03,02,31,0.00
2015,10,03,02,32,0.00
2015,10,03,02,33,0.00
2015,10,03,02,34,0.00
2015,10,03,02,35,0.00
2015,10,03,02,36,0.00
2015,10,03,02,37,0.00
2015,10,03,02,38,0.00
2015,10,03,02,39,0.00
2015,10,03,02,40,0.00
2015,10,03,02,41,0.00
2015,10,03,02,42,0.00
2015,10,03,02,43,0.00
2015,10,03,02,44,0.00
2015,10,03,02,45,0.00
2015,10,03,02,46,0.00
2015,10,03,02,47,0.00
2015,10,03,02,48,0.00
2015,10,03,02,49,0.00
2015,10,03,02,50,0.00
2015,10,03,02,51,0.00
2015,10,03,02,52,0.00
2015,10,03,02,53,0.00
2015,10,03,02,54,0.00
2015,10,03,02,55,0.00
2015,10,03,02,56,0.00
2015,10,03,02,57,0.00
2015,10,03,02,58,0.00
2015,10,03,02,59,0.00
2015,10,03,03,00,0.00
2015,10,03,03,01,0.00
2015,10,03,03,02,0.00
2015,10,03,03,03,0.00
2015,10,03,03,04,0.00
2015,10,03,03,05,0.00
2015,10,03,03,06,0.00
2015,10,03,03,07,0.00
2015,10,03,03,08,0.00
2015,10,03,03,09,0.00
2015,10,03,03,10,0.00
2015,10,03,03,11,0.00
2015,10,03,03,12,0.00
2015,10,03,03,13,0.00
2015,10,03,03,14,0.00
2015,10,03,03,15,0.00
2015,10,03,03,16,0.00
2015,10,03,03,17,0.00
2015,10,03,03,18,0.00
2015,10,03,03,19,0.00
2015,10,03,03,20,0.00
2015,10,03,03,21,0.00
2015,10,03,03,22,0.00
2015,10,03,03,23,0.00
2015,10,03,03,24,0.00
2015,10,03,03,25,0.00
2015,10,03,03,26,0.00
2015,10,03,03,27,0.00
2015,10,03,03,28,0.00
2015,10,03,03,29,0.00
2015,10,03,03,30,0.00
2015,10,03,03,31,0.00
2015,10,03,03,32,0.00
2015,10,03,03,33,0.00
2015,10,03,03,34,0.00
2015,10,03,03,35,0.00
2015,10,03,03,36,0.00
2015,10,03,03,37,0.00
2015,10,03,03,38,0.00
2015,10,03,03,39,0.00
2015,10,03,03,40,0.00
2015,10,03,03,41,0.00
2015,10,03,03,42,0.00
2015,10,03,03,43,0.00
2015,10,03,03,44,0.00
2015,10,03,03,45,0.00
2015,10,03,03,46,0.00
2015,10,03,03,47,0.00
2015,10,03,03,48,0.00
2015,10,03,03,49,0.00
2015,10,03,03,50,0.00
2015,10,03,03,51,0.00
2015,10,03,03,52,0.00
2015,10,03,03,53,0.00
2015,10,03,03,54,0.00
2015,10,03,03,55,0.00
2015,10,03,03,56,0.00
2015,10,03,03,57,0.00
2015,10,03,03,58,0.00
2015,10,03,03,59,0.00
2015,10,03,04,00,0.00
2015,10,03,04,01,0.00
2015,10,03,04,02,0.00
2015,10,03,04,03,0.00
2015,10,03,04,04,0.00
2015,10,03,04,05,0.00
2015,10,03,04,06,0.00
2015,10,03,04,07,0.00
2015,10,03,04,08,0.00
2015,10,03,04,09,0.00
2015,10,03,04,10,0.00
2015,10,03,04,11,0.00
2015,10,03,04,12,0.00
2015,10,03,04,13,0.00
2015,10,03,04,14,0.00
2015,10,03,04,15,0.00
2015,10,03,04,16,0.00
2015,10,03,04,17,0.00
2015,10,03,04,18,0.00
2015,10,03,04,19,0.00
2015,10,03,04,20,0.00
2015,10,03,04,21,0.00
2015,10,03,04,22,0.00
2015,10,03,04,23,0.00
2015,10,03,04,24,0.00
2015,10,03,04,25,0.00
2015,10,03,04,26,0.00
2015,10,03,04,27,0.00
2015,10,03,04,28,0.00
2015,10,03,04,29,0.00
2015,10,03,04,30,0.00
2015,10,03,04,31,0.00
2015,10,03,04,32,0.00
2015,10,03,04,33,0.00
2015,10,03,04,34,0.00
2015,10,03,04,35,0.00
2015,10,03,04,36,0.00
2015,10,03,04,37,0.00
2015,10,03,04,38,0.00
2015,10,03,04,39,0.00
2015,10,03,04,40,0.00
2015,10,03,04,41,0.00
2015,10,03,04,42,0.00
2015,10,03,04,43,0.00
2015,10,03,04,44,0.00
2015,10,03,04,45,0.00
2015,10,03,04,46,0.00
2015,10,03,04,47,0.00
2015,10,03,04,48,0.00
2015,10,03,04,49,0.00
2015,10,03,04,50,0.00
2015,10,03,04,51,0.00
2015,10,03,04,52,0.00
2015,10,03,04,53,0.00
2015,10,03,04,54,0.00
2015,10,03,04,55,0.00
2015,10,03,04,56,0.00
2015,10,03,04,57,0.00
2015,10,03,04,58,0.00
2015,10,03,04,59,0.00
2015,10,03,05,00,0.00
2015,10,03,05,01,0.00
2015,10,03,05,02,0.00
2015,10,03,05,03,0.00
2015,10,03,05,04,0.00
2015,10,03,05,05,0.00
2015,10,03,05,06,0.00
2015,10,03,05,07,0.00
2015,10,03,05,08,0.00
2015,10,03,05,09,0.00
2015,10,03,05,10,0.00
2015,10,03,05,11,0.00
2015,10,03,05,12,0.00
2015,10,03,05,13,0.00
2015,10,03,05,14,0.00
2015,10,03,05,15,0.00
2015,10,03,05,16,0.00
2015,10,03,05,17,0.00
2015,10,03,05,18,0.00
2015,10,03,05,19,0.00
2015,10,03,05,20,0.00
2015,10,03,05,21,0.00
2015,10,03,05,22,0.00
2015,10,03,05,23,0.00
2015,10,03,05,24,0.00
2015,10,03,05,25,0.00
2015,10,03,05,26,0.00
2015,10,03,05,27,0.00
2015,10,03,05,28,0.00
2015,10,03,05,29,0.00
2015,10,03,05,30,0.00
2015,10,03,05,31,0.00
2015,10,03,05,32,0.00
2015,10,03,05,33,0.00
2015,10,03,05,34,0.00
2015,10,03,05,35,0.00
2015,10,03,05,36,0.00
2015,10,03,05,37,0.00
2015,10,03,05,38,0.00
2015,10,03,05,39,0.00
2015,10,03,05,40,0.00
2015,10,03,05,41,0.00
2015,10,03,05,42,0.00
2015,10,03,05,43,0.00
2015,10,03,05,44,0.00
2015,10,03,05,45,0.00
2015,10,03,05,46,0.00
2015,10,03,05,47,0.00
2015,10,03,05,48,0.00
2015,10,03,05,49,0.00
2015,10,03,05,50,0.00
2015,10,03,05,51,0.00
2015,10,03,05,52,0.00
2015,10,03,05,53,0.00
2015,10,03,05,54,0.00
2015,10,03,05,55,0.00
2015,10,03,05,56,0.00
2015,10,03,05,57,0.00
2015,10,03,05,58,0.00
2015,10,03,05,59,0.00
2015,10,03,06,00,0.00
2015,10,03,06,01,0.00
2015,10,03,06,02,0.00
2015,10,03,06,03,0.00
2015,10,03,06,04,0.00
2015,10,03,06,05,0.00
2015,10,03,06,06,0.00
2015,10,03,06,07,0.00
2015,10,03,06,08,0.00
2015,10,03,06,09,0.00
2015,10,03,06,10,0.00
2015,10,03,06,11,0.00
2015,10,03,06,12,0.00
2015,10,03,06,13,0.00
2015,10,03,06,14,0.00
2015,10,03,06,15,0.00
2015,10,03,06,16,0.00
2015,10,03,06,17,0.00
2015,10,03,06,18,0.00
2015,10,03,06,19,0.00
2015,10,03,06,20,0.00
2015,10,03,06,21,0.00
2015,10,03,06,22,0.00
2015,10,03,06,23,0.00
2015,10,03,06,24,0.00
2015,10,03,06,25,0.00
2015,10,03,06,26,0.00
2015,10,03,06,27,0.00
2015,10,03,06,28,0.00
2015,10,03,06,29,0.00
2015,10,03,06,30,0.00
2015,10,03,06,31,0.00
2015,10,03,06,32,0.00
2015,10,03,06,33,0.00
2015,10,03,06,34,0.00
2015,10,03,06,35,0.00
2015,10,03,06,36,0.00
2015,10,03,06,37,0.00
2015,10,03,06,38,0.00
2015,10,03,06,39,0.00
2015,10,03,06,40,0.00
2015,10,03,06,41,0.00
2015,10,03,06,42,0.00
2015,10,03,06,43,0.00
2015,10,03,06,44,0.00
2015,10,03,06,45,0.00
2015,10,03,06,46,0.00
2015,10,03,06,47,0.00
2015,10,03,06,48,0.00
2015,10,03,06,49,0.00
2015,10,03,06,50,0.00
2015,10,03,06,51,0.00
2015,10,03,06,52,0.00
2015,10,03,06,53,0.00
2015,10,03,06,54,0.00
2015,10,03,06,55,0.00
2015,10,03,06,56,0.00
2015,10,03,06,57,0.00
2015,10,03,06,58,0.00
2015,10,03,06,59,0.00
2015,10,03,07,00,0.00
2015,10,03,07,01,0.00
2015,10,03,07,02,0.00
2015,10,03,07,03,0.00
2015,10,03,07,04,0.00
2015,10,03,07,05,0.00
2015,10,03,07,06,0.00
2015,10,03,07,07,0.00
2015,10,03,07,08,0.00
2015,10,03,07,09,0.00
2015,10,03,07,10,0.00
2015,10,03,07,11,0.00
2015,10,03,07,12,0.00
2015,10,03,07,13,0.00
2015,10,03,07,14,0.00
2015,10,03,07,15,0.00
2015,10,03,07,16,0.00
2015,10,03,07,17,0.00
2015,10,03,07,18,0.00
2015,10,03,07,19,0.00
2015,10,03,07,20,1.80
2015,10,03,07,21,5.00
2015,10,03,07,22,5.00
2015,10,03,07,23,5.00
2015,10,03,07,24,5.20
2015,10,03,07,25,7.00
2015,10,03,07,26,7.00
2015,10,03,07,27,7.00
2015,10,03,07,28,7.00
2015,10,03,07,29,7.00
2015,10,03,07,30,9.00
2015,10,03,07,31,9.00
2015,10,03,07,32,9.00
2015,10,03,07,33,9.00
2015,10,03,07,34,10.40
2015,10,03,07,35,11.00
2015,10,03,07,36,11.00
2015,10,03,07,37,11.00
2015,10,03,07,38,11.40
2015,10,03,07,39,12.00
2015,10,03,07,40,12.00
2015,10,03,07,41,12.00
2015,10,03,07,42,12.00
2015,10,03,07,43,12.00
2015,10,03,07,44,12.90
2015,10,03,07,45,14.00
2015,10,03,07,46,14.00
2015,10,03,07,47,14.00
2015,10,03,07,48,14.00
2015,10,03,07,49,14.60
2015,10,03,07,50,16.00
2015,10,03,07,51,16.00
2015,10,03,07,52,16.00
2015,10,03,07,53,16.00
2015,10,03,07,54,16.00
2015,10,03,07,55,16.70
2015,10,03,07,56,18.00
2015,10,03,07,57,18.00
2015,10,03,07,58,18.00
2015,10,03,07,59,18.00
2015,10,03,08,00,18.00
2015,10,03,08,01,18.00
2015,10,03,08,02,18.50
2015,10,03,08,03,19.00
2015,10,03,08,04,19.00
2015,10,03,08,05,19.00
2015,10,03,08,06,19.00
2015,10,03,08,07,19.00
2015,10,03,08,08,19.00
2015,10,03,08,09,19.00
2015,10,03,08,10,20.70
2015,10,03,08,11,21.00
2015,10,03,08,12,21.00
2015,10,03,08,13,21.00
2015,10,03,08,14,21.00
2015,10,03,08,15,21.00
2015,10,03,08,16,21.00
2015,10,03,08,17,21.00
2015,10,03,08,18,21.00
2015,10,03,08,19,21.80
2015,10,03,08,20,23.00
2015,10,03,08,21,23.00
2015,10,03,08,22,23.00
2015,10,03,08,23,23.00
2015,10,03,08,24,23.00
2015,10,03,08,25,23.00
2015,10,03,08,26,23.00
2015,10,03,08,27,23.00
2015,10,03,08,28,23.00
2015,10,03,08,29,23.30
2015,10,03,08,30,25.00
2015,10,03,08,31,25.00
2015,10,03,08,32,28.20
2015,10,03,08,33,30.00
2015,10,03,08,34,28.50
2015,10,03,08,35,31.60
2015,10,03,08,36,30.00
2015,10,03,08,37,39.50
2015,10,03,08,38,57.20
2015,10,03,08,39,57.40
2015,10,03,08,40,29.60
2015,10,03,08,41,31.50
2015,10,03,08,42,51.00
2015,10,03,08,43,106.00
2015,10,03,08,44,165.10
2015,10,03,08,45,180.40
2015,10,03,08,46,183.00
2015,10,03,08,47,185.20
2015,10,03,08,48,187.40
2015,10,03,08,49,191.10
2015,10,03,08,50,192.70
2015,10,03,08,51,194.60
2015,10,03,08,52,198.90
2015,10,03,08,53,200.50
2015,10,03,08,54,202.80
2015,10,03,08,55,205.20
2015,10,03,08,56,208.10
2015,10,03,08,57,210.70
2015,10,03,08,58,213.30
2015,10,03,08,59,216.50
2015,10,03,09,00,218.80
2015,10,03,09,01,220.60
2015,10,03,09,02,223.80
2015,10,03,09,03,226.70
2015,10,03,09,04,229.20
2015,10,03,09,05,231.20
2015,10,03,09,06,234.90
2015,10,03,09,07,236.60
2015,10,03,09,08,238.40
2015,10,03,09,09,242.60
2015,10,03,09,10,244.30
2015,10,03,09,11,246.70
2015,10,03,09,12,248.90
2015,10,03,09,13,251.80
2015,10,03,09,14,254.60
2015,10,03,09,15,256.90
2015,10,03,09,16,258.40
2015,10,03,09,17,261.40
2015,10,03,09,18,264.50
2015,10,03,09,19,266.30
2015,10,03,09,20,268.50
2015,10,03,09,21,270.90
2015,10,03,09,22,272.40
2015,10,03,09,23,275.40
2015,10,03,09,24,278.50
2015,10,03,09,25,280.30
2015,10,03,09,26,282.60
2015,10,03,09,27,285.20
2015,10,03,09,28,288.40
2015,10,03,09,29,290.70
2015,10,03,09,30,293.10
2015,10,03,09,31,294.70
2015,10,03,09,32,296.60
2015,10,03,09,33,301.10
2015,10,03,09,34,302.50
2015,10,03,09,35,304.80
2015,10,03,09,36,307.10
2015,10,03,09,37,310.10
2015,10,03,09,38,312.70
2015,10,03,09,39,315.10
2015,10,03,09,40,317.10
2015,10,03,09,41,320.90
2015,10,03,09,42,322.60
2015,10,03,09,43,324.50
2015,10,03,09,44,326.70
2015,10,03,09,45,329.10
2015,10,03,09,46,330.60
2015,10,03,09,47,333.80
2015,10,03,09,48,337.20
2015,10,03,09,49,338.70
2015,10,03,09,50,340.80
2015,10,03,09,51,343.30
2015,10,03,09,52,345.40
2015,10,03,09,53,347.80
2015,10,03,09,54,351.30
2015,10,03,09,55,352.80
2015,10,03,09,56,354.90
2015,10,03,09,57,357.30
2015,10,03,09,58,359.40
2015,10,03,09,59,361.00
2015,10,03,10,00,364.40
2015,10,03,10,01,366.80
2015,10,03,10,02,369.00
2015,10,03,10,03,371.40
2015,10,03,10,04,374.00
2015,10,03,10,05,377.00
2015,10,03,10,06,379.30
2015,10,03,10,07,380.80
2015,10,03,10,08,383.10
2015,10,03,10,09,385.50
2015,10,03,10,10,387.40
2015,10,03,10,11,389.00
2015,10,03,10,12,391.30
2015,10,03,10,13,393.60
2015,10,03,10,14,396.00
2015,10,03,10,15,397.50
2015,10,03,10,16,399.80
2015,10,03,10,17,402.10
2015,10,03,10,18,403.70
2015,10,03,10,19,405.60
2015,10,03,10,20,408.50
2015,10,03,10,21,411.50
2015,10,03,10,22,413.80
2015,10,03,10,23,416.10
2015,10,03,10,24,417.70
2015,10,03,10,25,418.10
2015,10,03,10,26,420.30
2015,10,03,10,27,422.90
2015,10,03,10,28,425.90
2015,10,03,10,29,428.20
2015,10,03,10,30,430.50
2015,10,03,10,31,431.90
2015,10,03,10,32,434.30
2015,10,03,10,33,436.70
2015,10,03,10,34,438.50
2015,10,03,10,35,440.30
2015,10,03,10,36,442.50
2015,10,03,10,37,444.80
2015,10,03,10,38,446.30
2015,10,03,10,39,448.70
2015,10,03,10,40,450.90
2015,10,03,10,41,453.20
2015,10,03,10,42,454.80
2015,10,03,10,43,457.00
2015,10,03,10,44,459.40
2015,10,03,10,45,461.40
2015,10,03,10,46,463.00
2015,10,03,10,47,465.30
2015,10,03,10,48,467.50
2015,10,03,10,49,468.10
2015,10,03,10,50,471.00
2015,10,03,10,51,471.70
2015,10,03,10,52,474.50
2015,10,03,10,53,476.00
2015,10,03,10,54,477.70
2015,10,03,10,55,481.80
2015,10,03,10,56,482.80
2015,10,03,10,57,485.00
2015,10,03,10,58,486.10
2015,10,03,10,59,488.40
2015,10,03,11,00,489.80
2015,10,03,11,01,492.20
2015,10,03,11,02,494.50
2015,10,03,11,03,496.40
2015,10,03,11,04,499.30
2015,10,03,11,05,501.00
2015,10,03,11,06,502.70
2015,10,03,11,07,504.30
2015,10,03,11,08,506.50
2015,10,03,11,09,508.80
2015,10,03,11,10,510.00
2015,10,03,11,11,511.40
2015,10,03,11,12,513.00
2015,10,03,11,13,515.30
2015,10,03,11,14,517.60
2015,10,03,11,15,519.00
2015,10,03,11,16,519.60
2015,10,03,11,17,521.50
2015,10,03,11,18,522.10
2015,10,03,11,19,524.40
2015,10,03,11,20,526.30
2015,10,03,11,21,527.00
2015,10,03,11,22,528.20
2015,10,03,11,23,530.50
2015,10,03,11,24,532.90
2015,10,03,11,25,533.20
2015,10,03,11,26,534.70
2015,10,03,11,27,536.00
2015,10,03,11,28,536.00
2015,10,03,11,29,537.50
2015,10,03,11,30,539.90
2015,10,03,11,31,540.20
2015,10,03,11,32,515.00
2015,10,03,11,33,477.00
2015,10,03,11,34,432.50
2015,10,03,11,35,398.70
2015,10,03,11,36,385.00
2015,10,03,11,37,380.00
2015,10,03,11,38,404.40
2015,10,03,11,39,441.00
2015,10,03,11,40,354.50
2015,10,03,11,41,304.80
2015,10,03,11,42,372.60
2015,10,03,11,43,306.20
2015,10,03,11,44,322.00
2015,10,03,11,45,451.20
2015,10,03,11,46,557.00
2015,10,03,11,47,558.70
2015,10,03,11,48,560.70
2015,10,03,11,49,560.20
2015,10,03,11,50,563.00
2015,10,03,11,51,563.50
2015,10,03,11,52,564.00
2015,10,03,11,53,565.60
2015,10,03,11,54,564.30
2015,10,03,11,55,566.00
2015,10,03,11,56,566.90
2015,10,03,11,57,568.00
2015,10,03,11,58,569.50
2015,10,03,11,59,570.00
2015,10,03,12,00,571.00
2015,10,03,12,01,571.00
2015,10,03,12,02,571.90
2015,10,03,12,03,573.00
2015,10,03,12,04,574.50
2015,10,03,12,05,575.10
2015,10,03,12,06,577.00
2015,10,03,12,07,577.30
2015,10,03,12,08,577.50
2015,10,03,12,09,579.00
2015,10,03,12,10,581.60
2015,10,03,12,11,580.30
2015,10,03,12,12,582.00
2015,10,03,12,13,582.00
2015,10,03,12,14,582.00
2015,10,03,12,15,583.30
2015,10,03,12,16,584.00
2015,10,03,12,17,584.10
2015,10,03,12,18,585.00
2015,10,03,12,19,585.80
2015,10,03,12,20,585.90
2015,10,03,12,21,586.40
2015,10,03,12,22,587.00
2015,10,03,12,23,589.00
2015,10,03,12,24,589.00
2015,10,03,12,25,589.00
2015,10,03,12,26,590.10
2015,10,03,12,27,591.00
2015,10,03,12,28,591.00
2015,10,03,12,29,592.00
2015,10,03,12,30,592.00
2015,10,03,12,31,592.90
2015,10,03,12,32,594.00
2015,10,03,12,33,594.00
2015,10,03,12,34,594.00
2015,10,03,12,35,594.30
2015,10,03,12,36,596.00
2015,10,03,12,37,596.00
2015,10,03,12,38,596.00
2015,10,03,12,39,597.40
2015,10,03,12,40,598.00
2015,10,03,12,41,597.70
2015,10,03,12,42,596.60
2015,10,03,12,43,598.00
2015,10,03,12,44,598.00
2015,10,03,12,45,598.80
2015,10,03,12,46,598.00
2015,10,03,12,47,598.20
2015,10,03,12,48,599.00
2015,10,03,12,49,600.00
2015,10,03,12,50,601.00
2015,10,03,12,51,601.00
2015,10,03,12,52,601.00
2015,10,03,12,53,601.50
2015,10,03,12,54,602.30
2015,10,03,12,55,601.00
2015,10,03,12,56,601.00
2015,10,03,12,57,601.00
2015,10,03,12,58,603.00
2015,10,03,12,59,603.00
2015,10,03,13,00,603.00
2015,10,03,13,01,603.00
2015,10,03,13,02,603.00
2015,10,03,13,03,603.00
2015,10,03,13,04,603.20
2015,10,03,13,05,604.40
2015,10,03,13,06,603.00
2015,10,03,13,07,604.20
2015,10,03,13,08,603.50
2015,10,03,13,09,603.00
2015,10,03,13,10,603.00
2015,10,03,13,11,603.00
2015,10,03,13,12,603.00
2015,10,03,13,13,601.90
2015,10,03,13,14,602.50
2015,10,03,13,15,604.60
2015,10,03,13,16,603.00
2015,10,03,13,17,603.70
2015,10,03,13,18,604.10
2015,10,03,13,19,604.20
2015,10,03,13,20,603.50
2015,10,03,13,21,604.80
2015,10,03,13,22,603.00
2015,10,03,13,23,603.60
2015,10,03,13,24,603.20
2015,10,03,13,25,601.00
2015,10,03,13,26,601.00
2015,10,03,13,27,601.00
2015,10,03,13,28,601.00
2015,10,03,13,29,601.00
2015,10,03,13,30,601.00
2015,10,03,13,31,601.00
2015,10,03,13,32,599.40
2015,10,03,13,33,602.60
2015,10,03,13,34,600.50
2015,10,03,13,35,598.70
2015,10,03,13,36,598.50
2015,10,03,13,37,598.30
2015,10,03,13,38,598.80
2015,10,03,13,39,599.20
2015,10,03,13,40,600.40
2015,10,03,13,41,598.60
2015,10,03,13,42,596.90
2015,10,03,13,43,597.40
2015,10,03,13,44,596.30
2015,10,03,13,45,594.30
2015,10,03,13,46,596.00
2015,10,03,13,47,596.00
2015,10,03,13,48,593.70
2015,10,03,13,49,592.00
2015,10,03,13,50,593.70
2015,10,03,13,51,592.00
2015,10,03,13,52,592.60
2015,10,03,13,53,593.10
2015,10,03,13,54,591.40
2015,10,03,13,55,591.00
2015,10,03,13,56,589.30
2015,10,03,13,57,589.00
2015,10,03,13,58,589.60
2015,10,03,13,59,590.10
2015,10,03,14,00,587.80
2015,10,03,14,01,587.00
2015,10,03,14,02,585.30
2015,10,03,14,03,587.00
2015,10,03,14,04,586.30
2015,10,03,14,05,584.50
2015,10,03,14,06,584.00
2015,10,03,14,07,584.00
2015,10,03,14,08,582.10
2015,10,03,14,09,582.00
2015,10,03,14,10,581.30
2015,10,03,14,11,580.00
2015,10,03,14,12,581.30
2015,10,03,14,13,580.40
2015,10,03,14,14,578.10
2015,10,03,14,15,578.00
2015,10,03,14,16,578.00
2015,10,03,14,17,577.50
2015,10,03,14,18,577.00
2015,10,03,14,19,577.00
2015,10,03,14,20,576.80
2015,10,03,14,21,575.00
2015,10,03,14,22,575.00
2015,10,03,14,23,573.90
2015,10,03,14,24,571.60
2015,10,03,14,25,571.00
2015,10,03,14,26,570.80
2015,10,03,14,27,569.50
2015,10,03,14,28,568.80
2015,10,03,14,29,568.90
2015,10,03,14,30,568.00
2015,10,03,14,31,567.90
2015,10,03,14,32,566.00
2015,10,03,14,33,565.40
2015,10,03,14,34,564.00
2015,10,03,14,35,563.40
2015,10,03,14,36,563.00
2015,10,03,14,37,562.90
2015,10,03,14,38,560.60
2015,10,03,14,39,559.00
2015,10,03,14,40,559.00
2015,10,03,14,41,559.00
2015,10,03,14,42,557.50
2015,10,03,14,43,555.20
2015,10,03,14,44,554.80
2015,10,03,14,45,554.00
2015,10,03,14,46,553.00
2015,10,03,14,47,552.00
2015,10,03,14,48,550.50
2015,10,03,14,49,549.80
2015,10,03,14,50,548.00
2015,10,03,14,51,546.90
2015,10,03,14,52,546.00
2015,10,03,14,53,545.70
2015,10,03,14,54,543.30
2015,10,03,14,55,541.10
2015,10,03,14,56,540.80
2015,10,03,14,57,540.00
2015,10,03,14,58,539.00
2015,10,03,14,59,536.70
2015,10,03,15,00,536.00
2015,10,03,15,01,534.10
2015,10,03,15,02,533.70
2015,10,03,15,03,532.20
2015,10,03,15,04,529.90
2015,10,03,15,05,529.00
2015,10,03,15,06,527.30
2015,10,03,15,07,526.00
2015,10,03,15,08,525.40
2015,10,03,15,09,523.20
2015,10,03,15,10,522.00
2015,10,03,15,11,520.50
2015,10,03,15,12,519.20
2015,10,03,15,13,516.70
2015,10,03,15,14,515.00
2015,10,03,15,15,514.20
2015,10,03,15,16,512.40
2015,10,03,15,17,510.50
2015,10,03,15,18,508.20
2015,10,03,15,19,507.60
2015,10,03,15,20,505.40
2015,10,03,15,21,504.00
2015,10,03,15,22,502.20
2015,10,03,15,23,499.50
2015,10,03,15,24,498.90
2015,10,03,15,25,496.80
2015,10,03,15,26,495.30
2015,10,03,15,27,494.00
2015,10,03,15,28,492.80
2015,10,03,15,29,490.40
2015,10,03,15,30,487.20
2015,10,03,15,31,486.60
2015,10,03,15,32,484.30
2015,10,03,15,33,482.50
2015,10,03,15,34,480.70
2015,10,03,15,35,478.40
2015,10,03,15,36,476.00
2015,10,03,15,37,474.50
2015,10,03,15,38,472.30
2015,10,03,15,39,469.90
2015,10,03,15,40,468.40
2015,10,03,15,41,466.30
2015,10,03,15,42,463.90
2015,10,03,15,43,461.80
2015,10,03,15,44,460.20
2015,10,03,15,45,457.90
2015,10,03,15,46,455.60
2015,10,03,15,47,454.20
2015,10,03,15,48,451.80
2015,10,03,15,49,449.40
2015,10,03,15,50,447.20
2015,10,03,15,51,445.50
2015,10,03,15,52,443.60
2015,10,03,15,53,441.30
2015,10,03,15,54,438.40
2015,10,03,15,55,436.00
2015,10,03,15,56,435.10
2015,10,03,15,57,432.80
2015,10,03,15,58,431.20
2015,10,03,15,59,427.40
2015,10,03,16,00,426.40
2015,10,03,16,01,423.40
2015,10,03,16,02,421.10
2015,10,03,16,03,418.20
2015,10,03,16,04,417.00
2015,10,03,16,05,416.70
2015,10,03,16,06,410.80
2015,10,03,16,07,409.30
2015,10,03,16,08,407.00
2015,10,03,16,09,404.70
2015,10,03,16,10,403.20
2015,10,03,16,11,399.30
2015,10,03,16,12,396.80
2015,10,03,16,13,395.30
2015,10,03,16,14,393.00
2015,10,03,16,15,390.60
2015,10,03,16,16,388.50
2015,10,03,16,17,386.60
2015,10,03,16,18,382.60
2015,10,03,16,19,380.60
2015,10,03,16,20,378.90
2015,10,03,16,21,376.60
2015,10,03,16,22,374.40
2015,10,03,16,23,370.90
2015,10,03,16,24,368.50
2015,10,03,16,25,365.80
2015,10,03,16,26,362.90
2015,10,03,16,27,362.00
2015,10,03,16,28,359.50
2015,10,03,16,29,356.50
2015,10,03,16,30,352.80
2015,10,03,16,31,351.20
2015,10,03,16,32,347.80
2015,10,03,16,33,345.30
2015,10,03,16,34,343.30
2015,10,03,16,35,340.50
2015,10,03,16,36,337.40
2015,10,03,16,37,335.10
2015,10,03,16,38,332.80
2015,10,03,16,39,329.80
2015,10,03,16,40,327.00
2015,10,03,16,41,323.00
2015,10,03,16,42,322.10
2015,10,03,16,43,318.20
2015,10,03,16,44,315.40
2015,10,03,16,45,313.40
2015,10,03,16,46,311.10
2015,10,03,16,47,308.40
2015,10,03,16,48,306.00
2015,10,03,16,49,304.10
2015,10,03,16,50,301.40
2015,10,03,16,51,297.80
2015,10,03,16,52,295.10
2015,10,03,16,53,293.20
2015,10,03,16,54,289.30
2015,10,03,16,55,287.50
2015,10,03,16,56,284.40
2015,10,03,16,57,281.40
2015,10,03,16,58,278.80
2015,10,03,16,59,275.60
2015,10,03,17,00,273.20
2015,10,03,17,01,270.40
2015,10,03,17,02,267.60
2015,10,03,17,03,265.30
2015,10,03,17,04,262.00
2015,10,03,17,05,259.50
2015,10,03,17,06,257.60
2015,10,03,17,07,254.80
2015,10,03,17,08,251.60
2015,10,03,17,09,250.10
2015,10,03,17,10,245.70
2015,10,03,17,11,243.70
2015,10,03,17,12,241.40
2015,10,03,17,13,237.90
2015,10,03,17,14,236.30
2015,10,03,17,15,234.10
2015,10,03,17,16,229.80